Flag for Germany Weather past 2 weeks in Germering, Bavaria, Germany

Now
79 °F

Sunny.


Feels Like: 79 °F
Forecast: 56 / 78 °F
Wind: 10 mph from West

Location: Oberpfaffenhofen

Current Time: Jun 3, 2015 at 3:42:37 PM

Latest Report: Jun 3, 2015 at 3:20 PM


Visibility: 10 mi

Pressure: 30.21 "Hg

Humidity: 42%

Dew point: 54 °F

Location of GermeringLocation

Historic Weather in Germering — Graph

°F

Germering temperature yesterday

Maximum temperature yesterday: 75 °F (at 3:20 PM)
Minimum temperature yesterday: 57 °F (at 6:50 AM)
Average temperature yesterday: 69 °F

Past Weeks' High & Low Weather Summary

 TemperatureHumidityPressure
High79 °F (Jun 3, 12:50 PM)100% (May 20, 6:50 AM)30.27 "Hg (May 20, 6:50 AM)
Low41 °F (May 22, 6:50 AM)28% (May 28, 4:50 PM)29.83 "Hg (May 19, 2:20 PM)
Average58 °F71%30.08 "Hg
* Reported May 19 2:20 PM — Jun 3 2:20 PM, Germering, Weather by CustomWeather, © 2015

Note: Actual official high and low records may vary slightly from our data, if they occured in-between our weather recording intervals... More about our weather records

Advertising

Germering weather history for previous 24 hours

 ConditionsComfort  
Time TempWeatherWind HumidityBarometerVisibility
2:20 PM
Wed, Jun 3
79 °FSunny.13 mph42%30.21 "Hg10 mi
1:50 PM79 °FSunny.14 mph48%30.21 "Hg10 mi
1:20 PM79 °FSunny.10 mph45%30.21 "Hg10 mi
12:50 PM79 °FSunny.12 mph45%30.21 "Hg10 mi
12:20 PM77 °FSunny.10 mph47%30.21 "Hg10 mi
11:50 AM77 °FPassing clouds.9 mph51%30.21 "HgN/A
11:20 AM77 °FPassing clouds.10 mph47%30.21 "HgN/A
10:50 AM75 °FPassing clouds.7 mph50%30.21 "HgN/A
10:20 AM73 °FPassing clouds.7 mph61%30.21 "HgN/A
9:50 AM72 °FSunny.8 mph61%30.21 "Hg10 mi
9:20 AM72 °FSunny.8 mph61%30.21 "Hg10 mi
8:50 AM70 °FSunny.8 mph64%30.21 "Hg10 mi
8:20 AM68 °FSunny.7 mph69%30.21 "Hg10 mi
7:50 AM66 °FSunny.6 mph73%30.21 "Hg10 mi
7:20 AM64 °FSunny.5 mph78%30.21 "Hg10 mi
6:50 AM61 °FSunny.7 mph88%30.18 "Hg10 mi
9:50 PM
Tue, Jun 2
63 °FSunny.2 mph83%30.12 "Hg10 mi
9:20 PM63 °FSunny.3 mph83%30.12 "Hg10 mi
8:50 PM68 °FSunny.5 mph64%30.12 "Hg10 mi
8:20 PM72 °FSunny.6 mph57%30.12 "Hg10 mi
7:50 PM73 °FSunny.6 mph50%30.09 "Hg10 mi
6:50 PM75 °FPassing clouds.8 mph47%30.09 "HgN/A
6:20 PM75 °FSunny.9 mph50%30.09 "Hg10 mi
5:50 PM75 °FSunny.8 mph47%30.09 "Hg10 mi
5:20 PM75 °FSunny.9 mph50%30.09 "Hg10 mi
4:50 PM75 °FSunny.9 mph50%30.09 "Hg10 mi
4:20 PM75 °FSunny.10 mph50%30.09 "Hg10 mi
3:50 PM75 °FScattered clouds.12 mph50%30.09 "HgN/A
3:20 PM75 °FScattered clouds.8 mph50%30.12 "HgN/A
Weather by CustomWeather, © 2015

See weather overviewHow to use our weather pages